Simultaneous Nadir Overpasses (SNOs) Predictions

Prediction of SNOs between LANDSAT-8 and NOAA-19 Satellite Orbit:

Table of predicted SNOs for the next 14.0 days since TLE Epoch: 3/7/2020
Index Date (LANDSAT-8) Time (LANDSAT-8) Lat,Lon (LANDSAT-8) SZA (LANDSAT-8 ) Date (NOAA-19) Time (NOAA-19) Lat,Lon (NOAA-19) SZA (NOAA-19 ) Distance(km) Time Diff (sec)
1 03/09/2020 05:28:34 79.55, 121.88 84.52 03/09/2020 05:28:14 79.55, 121.76 84.50 2.67 20
2 03/09/2020 06:18:04 -79.44, -71.26 95.65 03/09/2020 06:19:14 -79.39, -69.48 95.56 36.68 70
3 03/11/2020 11:02:18 -79.54,-141.64 96.36 03/11/2020 11:01:39 -79.55,-141.52 96.36 2.56 39
4 03/11/2020 11:51:44 79.54, 25.98 83.63 03/11/2020 11:52:34 79.54, 25.81 83.63 3.55 50
5 03/13/2020 16:36:00 79.56, -44.95 82.80 03/13/2020 16:34:54 79.56, -44.83 82.79 2.41 66
6 03/13/2020 17:25:28 -79.53, 122.47 97.26 03/13/2020 17:25:59 -79.54, 122.52 97.23 2.02 31
7 03/15/2020 22:59:10 79.54,-140.87 81.89 03/15/2020 22:59:14 79.55,-140.79 81.91 2.01 4
8 03/18/2020 04:32:53 -79.57, -44.11 98.94 03/18/2020 04:32:39 -79.56, -44.16 98.96 1.21 14
9 03/18/2020 05:22:18 79.56, 123.47 81.04 03/18/2020 05:23:31 79.49, 123.83 81.02 10.53 73
10 03/20/2020 10:06:34 79.58, 52.50 80.20 03/20/2020 10:05:53 79.56, 52.60 80.19 2.42 41




NCC Satellite Simultaneous Nadir Overpasses (SNOs) Prediction Service
